Location: Boda
(47.1872°N, 9.5454°E)
Time: 09:50:33
(UTC+00:00)

GP-B - Pass Details

Date: 14 May 2021
Orbit: 631 x 635 km, 89.8° (Epoch: 16 June)

Event Time Altitude Azimuth Distance (km) Brightness Sun altitude
Rises 01:51:06 0° 1° (N) 2,941 7.4 -15.7°
Reaches altitude 10° 01:53:19 10° 1° (N) 2,028 6.5 -15.5°
Maximum altitude 01:57:48 88° 272° (W) 640 3.1 -15.0°
Enters shadow 02:01:04 18° 184° (S) 1,546 4.6 -14.7°
